Tracking 29892 objects as of 21-Nov-2024
HD Live streaming from Space Station
objects crossing your sky now

CZ-3B R/B

Track CZ-3B R/B now!
10-day predictions


NORAD ID: 44796
Int'l Code: 2019-078D
Perigee: 438.0 km
Apogee: 16,471.4 km
Inclination: 54.9 °
Period: 299.4 minutes
Semi major axis: 14825 km
RCS: Unknown
Launch date: November 23, 2019
Source: People's Republic of China (PRC)
Launch site: Xichang Space Center, China (XSC)

Note: This is a ROCKET BODY
Your satellite tracking list
Your tracking list is empty




NASA's NSSDC Master Catalog

Two Line Element Set (TLE):
1 44796U 19078D   24325.80143148  .00000493  00000-0  60888-3 0  9999
2 44796  54.9387  11.9278 5407308  70.2075 338.7855  4.80928491 85843
Source of the keplerian elements: AFSPC